| time (UTC) | temp F | wind direction | speed MPH | gust MPH | rain 1hr in | rain 24hr in | rain mn in | humidity % | barometer mb |
| 20260507104540 | 38 | 11 | 0.0 | 1.0 | 0.00 | 0.30 | 0.00 | 86 | 1012.4 |
| 20260507103036 | 38 | 11 | 0.0 | 0.0 | 0.00 | 0.33 | 0.00 | 87 | 1012.2 |
| 20260507101544 | 37 | 11 | 0.0 | 0.0 | 0.00 | 0.33 | 0.00 | 86 | 1012.0 |
| 20260507100037 | 37 | 11 | 0.0 | 2.0 | 0.00 | 0.33 | 0.00 | 85 | 1012.0 |
| 20260507094536 | 37 | 11 | 0.0 | 0.0 | 0.00 | 0.33 | 0.00 | 84 | 1011.9 |
| 20260507093039 | 38 | 11 | 0.0 | 3.0 | 0.00 | 0.37 | 0.00 | 82 | 1011.8 |
| 20260507091535 | 38 | 11 | 1.0 | 4.0 | 0.00 | 0.37 | 0.00 | 82 | 1011.9 |
| 20260507090034 | 38 | 9 | 2.0 | 5.0 | 0.00 | 0.37 | 0.00 | 82 | 1011.9 |
| 20260507084532 | 38 | 9 | 2.0 | 5.0 | 0.00 | 0.37 | 0.00 | 81 | 1012.0 |
| 20260507083037 | 38 | 15 | 2.0 | 4.0 | 0.00 | 0.39 | 0.00 | 81 | 1012.1 |
| 20260507081530 | 39 | 15 | 1.0 | 4.0 | 0.00 | 0.39 | 0.00 | 81 | 1012.0 |
| 20260507080030 | 39 | 15 | 1.0 | 4.0 | 0.00 | 0.39 | 0.00 | 81 | 1012.0 |
| 20260507074530 | 39 | 21 | 2.0 | 5.0 | 0.00 | 0.39 | 0.00 | 81 | 1012.0 |
| 20260507073026 | 39 | 15 | 1.0 | 4.0 | 0.00 | 0.40 | 0.00 | 81 | 1011.9 |
| 20260507071531 | 40 | 15 | 0.0 | 2.0 | 0.00 | 0.40 | 0.00 | 81 | 1011.8 |
| 20260507070022 | 40 | 15 | 0.0 | 2.0 | 0.00 | 0.40 | 0.00 | 81 | 1011.7 |
| 20260507064519 | 41 | 42 | 1.0 | 4.0 | 0.00 | 0.40 | 0.00 | 79 | 1011.8 |
| 20260507063018 | 41 | 18 | 2.0 | 5.0 | 0.00 | 0.40 | 0.40 | 79 | 1011.8 |
| 20260507061518 | 41 | 32 | 2.0 | 4.0 | 0.00 | 0.40 | 0.40 | 79 | 1011.8 |
| 20260507060018 | 41 | 360 | 1.0 | 6.0 | 0.00 | 0.40 | 0.40 | 82 | 1011.8 |
| 20260507054515 | 41 | 15 | 1.0 | 5.0 | 0.00 | 0.40 | 0.40 | 84 | 1012.1 |
| 20260507053015 | 41 | 321 | 0.0 | 5.0 | 0.00 | 0.40 | 0.40 | 87 | 1012.0 |
| 20260507051505 | 41 | 17 | 0.0 | 3.0 | 0.00 | 0.40 | 0.40 | 86 | 1011.5 |
| 20260507050005 | 42 | 346 | 1.0 | 3.0 | 0.00 | 0.40 | 0.40 | 84 | 1011.7 |
| 20260507044502 | 42 | 321 | 2.0 | 6.0 | 0.00 | 0.40 | 0.40 | 83 | 1011.8 |
| 20260507043100 | 43 | 293 | 0.0 | 6.0 | 0.00 | 0.40 | 0.40 | 82 | 1011.9 |
| 20260507041501 | 43 | 289 | 2.0 | 8.0 | 0.00 | 0.40 | 0.40 | 82 | 1011.8 |
| 20260507040112 | 43 | 297 | 2.0 | 5.0 | 0.00 | 0.40 | 0.40 | 83 | 1011.4 |
| 20260507034605 | 43 | 290 | 1.0 | 6.0 | 0.00 | 0.40 | 0.40 | 83 | 1011.2 |
| 20260507033058 | 43 | 301 | 2.0 | 7.0 | 0.00 | 0.40 | 0.40 | 85 | 1011.2 |
| 20260507031557 | 43 | 300 | 1.0 | 8.0 | 0.00 | 0.40 | 0.40 | 87 | 1011.1 |
| 20260507030056 | 43 | 304 | 2.0 | 7.0 | 0.00 | 0.40 | 0.40 | 89 | 1011.1 |
| 20260507024552 | 44 | 315 | 1.0 | 6.0 | 0.00 | 0.40 | 0.40 | 91 | 1010.8 |
| 20260507023051 | 44 | 311 | 1.0 | 6.0 | 0.00 | 0.40 | 0.40 | 93 | 1010.8 |
| 20260507021554 | 44 | 315 | 0.0 | 4.0 | 0.00 | 0.40 | 0.40 | 94 | 1011.3 |
| 20260507014605 | 44 | 317 | 0.0 | 3.0 | 0.00 | 0.40 | 0.40 | 95 | 1011.2 |
| 20260507013053 | 44 | 317 | 0.0 | 1.0 | 0.00 | 0.40 | 0.40 | 95 | 1010.9 |
| 20260507011602 | 44 | 317 | 0.0 | 1.0 | 0.00 | 0.40 | 0.40 | 95 | 1011.0 |
| 20260507010055 | 44 | 317 | 0.0 | 1.0 | 0.00 | 0.40 | 0.40 | 95 | 1011.0 |
| 20260507004551 | 44 | 317 | 0.0 | 2.0 | 0.00 | 0.40 | 0.40 | 95 | 1010.7 |
| 20260507003049 | 45 | 317 | 0.0 | 2.0 | 0.00 | 0.40 | 0.40 | 95 | 1010.7 |
| 20260507001606 | 45 | 317 | 0.0 | 0.0 | 0.00 | 0.40 | 0.40 | 95 | 1010.3 |
| 20260507000056 | 45 | 317 | 0.0 | 1.0 | 0.00 | 0.40 | 0.40 | 95 | 1010.0 |
| 20260506234548 | 45 | 317 | 0.0 | 3.0 | 0.00 | 0.40 | 0.40 | 95 | 1009.9 |
| 20260506233045 | 45 | 294 | 0.0 | 5.0 | 0.00 | 0.40 | 0.40 | 95 | 1009.8 |
| 20260506231539 | 45 | 50 | 0.0 | 2.0 | 0.00 | 0.40 | 0.40 | 95 | 1009.6 |
| 20260506230037 | 45 | 51 | 0.0 | 1.0 | 0.00 | 0.40 | 0.40 | 95 | 1009.3 |
| 20260506224537 | 46 | 38 | 0.0 | 1.0 | 0.00 | 0.40 | 0.40 | 95 | 1009.1 |
| 20260506223035 | 46 | 38 | 0.0 | 3.0 | 0.00 | 0.40 | 0.40 | 95 | 1009.2 |
| 20260506221535 | 46 | 27 | 0.0 | 4.0 | 0.00 | 0.40 | 0.40 | 95 | 1009.1 |
| 20260506220034 | 46 | 49 | 0.0 | 5.0 | 0.00 | 0.40 | 0.40 | 95 | 1009.0 |
| 20260506214532 | 46 | 360 | 2.0 | 6.0 | 0.00 | 0.40 | 0.40 | 95 | 1008.6 |
| 20260506213030 | 46 | 24 | 1.0 | 4.0 | 0.00 | 0.40 | 0.40 | 95 | 1008.3 |
| 20260506211526 | 46 | 19 | 1.0 | 6.0 | 0.00 | 0.40 | 0.40 | 95 | 1008.1 |
| 20260506210024 | 46 | 49 | 1.0 | 6.0 | 0.00 | 0.40 | 0.40 | 96 | 1008.1 |
| 20260506204523 | 46 | 5 | 2.0 | 5.0 | 0.00 | 0.40 | 0.40 | 96 | 1007.9 |
| 20260506203030 | 46 | 350 | 1.0 | 7.0 | 0.00 | 0.42 | 0.40 | 95 | 1007.8 |
| 20260506201525 | 46 | 44 | 3.0 | 7.0 | 0.00 | 0.42 | 0.40 | 95 | 1007.4 |
| 20260506200025 | 46 | 5 | 2.0 | 7.0 | 0.00 | 0.42 | 0.40 | 96 | 1007.1 |
| 20260506194522 | 47 | 37 | 1.0 | 3.0 | 0.00 | 0.42 | 0.40 | 96 | 1007.1 |
| 20260506193019 | 46 | 46 | 1.0 | 7.0 | 0.00 | 0.42 | 0.40 | 96 | 1006.8 |
| 20260506191519 | 46 | 355 | 4.0 | 8.0 | 0.00 | 0.42 | 0.40 | 95 | 1006.6 |
| 20260506190025 | 47 | 40 | 3.0 | 8.0 | 0.01 | 0.42 | 0.40 | 96 | 1006.5 |
| 20260506184516 | 47 | 15 | 4.0 | 9.0 | 0.01 | 0.42 | 0.40 | 96 | 1006.4 |
| 20260506183014 | 47 | 29 | 4.0 | 10.0 | 0.04 | 0.42 | 0.40 | 96 | 1006.4 |
| 20260506181511 | 47 | 11 | 3.0 | 8.0 | 0.05 | 0.42 | 0.40 | 95 | 1006.1 |
| 20260506180009 | 47 | 5 | 2.0 | 6.0 | 0.04 | 0.41 | 0.39 | 95 | 1005.9 |
| 20260506174509 | 48 | 42 | 3.0 | 6.0 | 0.04 | 0.41 | 0.39 | 95 | 1005.6 |
| 20260506173002 | 49 | 10 | 3.0 | 8.0 | 0.02 | 0.39 | 0.37 | 95 | 1005.3 |
| 20260506171604 | 52 | 15 | 6.0 | 9.0 | 0.00 | 0.37 | 0.35 | 91 | 1005.0 |
| 20260506170054 | 55 | 247 | 0.0 | 6.0 | 0.00 | 0.37 | 0.35 | 96 | 1004.8 |
| 20260506164558 | 55 | 226 | 1.0 | 5.0 | 0.00 | 0.37 | 0.35 | 95 | 1004.9 |
| 20260506163116 | 55 | 258 | 2.0 | 7.0 | 0.00 | 0.37 | 0.35 | 96 | 1004.8 |
| 20260506161556 | 54 | 274 | 1.0 | 6.0 | 0.00 | 0.37 | 0.35 | 96 | 1004.8 |
| 20260506160056 | 54 | 241 | 1.0 | 8.0 | 0.00 | 0.37 | 0.35 | 96 | 1004.8 |
| 20260506154555 | 54 | 213 | 1.0 | 11.0 | 0.00 | 0.37 | 0.35 | 96 | 1004.7 |
| 20260506153109 | 54 | 232 | 4.0 | 12.0 | 0.00 | 0.37 | 0.35 | 96 | 1004.4 |
| 20260506151552 | 54 | 167 | 2.0 | 7.0 | 0.00 | 0.37 | 0.35 | 96 | 1004.6 |
| 20260506150051 | 53 | 229 | 1.0 | 11.0 | 0.00 | 0.37 | 0.35 | 95 | 1004.7 |
| 20260506144550 | 53 | 249 | 2.0 | 12.0 | 0.01 | 0.37 | 0.35 | 96 | 1004.7 |
| 20260506143050 | 53 | 240 | 1.0 | 10.0 | 0.02 | 0.37 | 0.35 | 96 | 1004.7 |
| 20260506141553 | 53 | 230 | 4.0 | 11.0 | 0.03 | 0.37 | 0.35 | 96 | 1004.4 |
| 20260506140051 | 53 | 200 | 5.0 | 10.0 | 0.04 | 0.37 | 0.35 | 95 | 1004.2 |
| 20260506134548 | 53 | 231 | 0.0 | 9.0 | 0.04 | 0.36 | 0.34 | 95 | 1004.3 |
| 20260506133050 | 53 | 166 | 1.0 | 8.0 | 0.05 | 0.35 | 0.33 | 95 | 1004.4 |
| 20260506131601 | 53 | 225 | 1.0 | 8.0 | 0.08 | 0.34 | 0.32 | 95 | 1004.6 |
| 20260506130053 | 53 | 225 | 3.0 | 13.0 | 0.11 | 0.33 | 0.31 | 95 | 1004.7 |
| 20260506124549 | 53 | 207 | 1.0 | 14.0 | 0.11 | 0.32 | 0.30 | 95 | 1004.6 |
| 20260506123049 | 53 | 209 | 0.0 | 5.0 | 0.12 | 0.30 | 0.28 | 95 | 1005.0 |
| 20260506121553 | 53 | 275 | 0.0 | 4.0 | 0.11 | 0.27 | 0.25 | 95 | 1005.5 |
| 20260506120043 | 53 | 225 | 1.0 | 7.0 | 0.09 | 0.23 | 0.21 | 95 | 1005.3 |
| 20260506114542 | 53 | 236 | 2.0 | 9.0 | 0.10 | 0.22 | 0.20 | 95 | 1005.0 |
| 20260506113041 | 53 | 198 | 0.0 | 6.0 | 0.08 | 0.19 | 0.17 | 95 | 1004.9 |
| 20260506111536 | 53 | 240 | 1.0 | 5.0 | 0.05 | 0.16 | 0.14 | 94 | 1004.8 |
| 20260506110039 | 53 | 227 | 2.0 | 8.0 | 0.04 | 0.14 | 0.12 | 94 | 1004.8 |